Vinton Veterans Memorial Airpark Airport
Saturday 11:35 PM
Temperature35° (52°/31°)
Dew Point30°
Feels Like30°
Relative Humidity80
%
Visibility10
mi
Pressure1020.7
mb
Wind DirectionN
350°
Wind Speed6
mph
Precipitation Today0.00"

Last 30 Observations

Time PresWx Temp DP Feels RH% Vsby Pressure Ceiling Direction Speed 1h Precip
11:15 PM 36° 28° 33°73
%
10
mi
1020.7
mb
N
360°
3
mph
0.00"
10:55 PM 36° 26° 33°68
%
10
mi
1020.7
mb
N
10°
3
mph
0.00"
10:35 PM 38° 28° 69
%
10
mi
1020.7
mb
Calm 0.00"
10:15 PM 38° 27° 34°63
%
10
mi
1020.7
mb
NNE
20°
5
mph
0.00"
9:55 PM 38° 26° 36°61
%
10
mi
1020.7
mb
NNE
30°
3
mph
0.00"
9:35 PM 40° 26° 38°57
%
10
mi
1021.0
mb
N
10°
3
mph
0.00"
9:15 PM 42° 26° 40°52
%
10
mi
1021.0
mb
NNE
30°
3
mph
0.00"
8:55 PM 41° 26° 40°54
%
10
mi
1020.7
mb
NNE
20°
3
mph
0.00"
8:35 PM 43° 24° 47
%
10
mi
1020.7
mb
Calm 0.00"
8:15 PM 43° 25° 48
%
10
mi
1020.7
mb
Calm 0.00"
7:55 PM 46° 24° 44°42
%
10
mi
1020.7
mb
ENE
60°
3
mph
0.00"
7:35 PM 48° 25° 40
%
10
mi
1020.7
mb
Calm 0.00"
7:15 PM 51° 26° 37
%
10
mi
1020.7
mb
NNE
20°
3
mph
0.00"
6:55 PM 51° 24° 34
%
10
mi
1020.7
mb
NNE
20°
5
mph
0.00"
6:35 PM 51° 23° 33
%
10
mi
1020.7
mb
NE
50°
6
mph
0.00"
6:15 PM 51° 22° 32
%
10
mi
1020.3
mb
NNE
30°
7
mph
0.00"
5:55 PM 51° 23° 34
%
10
mi
1020.3
mb
12,000
ft
NE
40°
6
mph
0.00"
5:35 PM 51° 23° 33
%
10
mi
1020.3
mb
NNE
30°
10
mph
0.00"
5:15 PM 52° 25° 35
%
10
mi
1020.3
mb
N
10°
6
mph
0.00"
4:55 PM 51° 24° 34
%
10
mi
1020.3
mb
NNE
30°
6
mph
0.00"
4:35 PM 51° 24° 34
%
10
mi
1020.7
mb
N
360°
8
mph
0.00"
4:15 PM 51° 24° 34
%
10
mi
1021.0
mb
NNE
30°
9
mph
0.00"
3:55 PM 51° 23° 33
%
10
mi
1021.3
mb
N
10°
10
mph
0.00"
3:35 PM 51° 24° 35
%
10
mi
1021.7
mb
N
350°
10
mph
0.00"
3:15 PM 51° 25° 36
%
10
mi
1022.0
mb
NNE
20°
11
mph
0.00"
2:55 PM 48° 25° 44°39
%
10
mi
1022.4
mb
N
350°
9
mph
0.00"
2:35 PM 50° 27° 40
%
10
mi
1022.4
mb
N
360°
6
mph
0.00"
2:15 PM 48° 25° 44°41
%
10
mi
1022.7
mb
NNE
20°
9
mph
0.00"
1:55 PM 48° 25° 43°40
%
10
mi
1022.7
mb
N
10°
11
mph
0.00"
1:35 PM 47° 26° 43°44
%
10
mi
1023.0
mb
NNE
20°
8
mph
0.00"